Zurück zum Katalog

CZ-6A DEB

AktivSSO
NORAD 54613·DEBRIS·🇨🇳 China

Gestartet Nov 11, 2022 von Taiyuan Satellite Launch Center

Loading…

Nächste Überflüge (nächste 24 Stunden)

TLE

AktuellSource: Space-Track

Epoche: Sep 14, 2026, 22:59 UTC

1 54613U 22151NP  26257.95802190  .00000177  00000-0  12432-3 0  9996
2 54613  98.8527 254.4750 0052065  69.1884 291.4852 14.09600247196832

Verfolge CZ-6A DEB in Echtzeit mit AllMySat

Download on the App Store